Home > Weather > Jaén > Past weeks

Flag for Spain Weather for the Past 2 Weeks in Jaén, Spain

Now
72 °F

Passing clouds.


Feels Like: 76 °F
Forecast: 43 / 74 °F
Wind: 2 mph from North

Location: Granada / Aeropuerto

Current Time: May 1, 2016 at 12:58:26 PM

Latest Report: May 1, 2016 at 12:30 PM


Visibility: N/A

Pressure: 30.18 "Hg (28.27 "Hg at 565m altitude)

Humidity: 27%

Dew Point: 36 °F

Location of JaénLocation

Historic Weather in Jaén — Graph

°F

Jaén Temperature Yesterday

Maximum temperature yesterday: 77 °F (at 5:30 PM)
Minimum temperature yesterday: 55 °F (at 7:00 AM)
Average temperature yesterday: 67 °F

High & Low Weather Summary for the Past Weeks

 TemperatureHumidityPressure
High79 °F (Apr 26, 5:00 PM)100% (Apr 17, 9:30 AM)30.21 "Hg (Apr 17, 9:30 AM)
Low43 °F (Apr 21, 7:30 AM)22% (Apr 30, 5:30 PM)29.86 "Hg (Apr 26, 5:30 PM)
Average64 °F58%30.00 "Hg
* Reported Apr 16 11:00 AM — May 1 11:30 AM, Jaén, Weather by CustomWeather, © 2016

Note: Actual official high and low records may vary slightly from our data, if they occured in-between our weather recording intervals... More about our weather records

Advertising

Jaén Weather History for the Previous 24 Hours

Scroll right to see more
 ConditionsComfort  
Time TempWeatherWind HumidityBarometerVisibility
11:30 AM
Sun, May 1
68 °FPassing clouds.5 mph30%30.18 "HgN/A
11:00 AM66 °FPassing clouds.2 mph43%30.18 "HgN/A
10:30 AM66 °FSunny.1 mph46%30.21 "Hg10 mi
10:00 AM63 °FSunny.1 mph56%30.18 "Hg10 mi
9:00 AM55 °FSunny.No wind72%30.18 "Hg10 mi
8:30 AM50 °FSunny.No wind88%30.18 "Hg10 mi
8:00 AM48 °FClear.1 mph87%30.18 "Hg10 mi
7:30 AM46 °FClear.No wind87%30.18 "Hg10 mi
6:30 AM48 °FClear.2 mph87%30.15 "Hg10 mi
6:00 AM48 °FClear.2 mph87%30.15 "Hg10 mi
11:00 PM
Sat, Apr 30
59 °FClear.3 mph59%30.12 "Hg10 mi
10:30 PM61 °FClear.1 mph55%30.12 "Hg10 mi
9:30 PM66 °FPassing clouds.2 mph46%30.09 "HgN/A
9:00 PM68 °FPassing clouds.No wind43%30.09 "HgN/A
8:30 PM70 °FPassing clouds.1 mph38%30.07 "HgN/A
8:00 PM70 °FPassing clouds.10 mph35%30.07 "HgN/A
7:30 PM73 °FPassing clouds.12 mph31%30.07 "HgN/A
7:00 PM72 °FPassing clouds.10 mph36%30.07 "HgN/A
6:30 PM73 °FPassing clouds.13 mph29%30.07 "HgN/A
6:00 PM77 °FPassing clouds.8 mph24%30.04 "HgN/A
5:30 PM77 °FPassing clouds.9 mph22%30.04 "HgN/A
5:00 PM73 °FPassing clouds.8 mph29%30.04 "HgN/A
4:30 PM75 °FPassing clouds.8 mph27%30.04 "HgN/A
4:00 PM75 °FPassing clouds.5 mph31%30.07 "HgN/A
3:30 PM75 °FPassing clouds.3 mph34%30.07 "HgN/A
3:00 PM73 °FScattered clouds.5 mph41%30.07 "HgN/A
2:30 PM73 °FScattered clouds.3 mph36%30.07 "HgN/A
2:00 PM70 °FScattered clouds.2 mph50%30.07 "HgN/A
1:30 PM70 °FScattered clouds.2 mph50%30.09 "HgN/A
1:00 PM70 °FScattered clouds.2 mph50%30.09 "HgN/A
12:30 PM70 °FScattered clouds.No wind53%30.09 "HgN/A
12:00 PM66 °FScattered clouds.1 mph60%30.09 "HgN/A
Weather by CustomWeather, © 2016

See weather overviewHow to use our weather pages